![]() |
EMODnet Physics ERDDAP
Easier access to scientific data |
log in|
Brought to you by EMODnet Physics |
| Dataset Title: | NDBC - Collection of dew point temperature (DEWT) TimeSeries - IN SITU MultiPointTimeSeriesObservation
|
| Institution: | NDBC (Dataset ID: TS_DEWT_NDBC) |
| Information: | Summary
| License
| FGDC
| ISO 19115
| Metadata
| Background
| Subset
| Data Access Form
| Make a graph
|
| Name | Last modified | Size | Description | |
|---|---|---|---|---|
| Parent Directory | - | - | ||
| BURL1_TS_DEWT_011985.nc | 30-Oct-2024 10:03 | 428809 | ||
| BURL1_TS_DEWT_011986.nc | 30-Oct-2024 11:01 | 427748 | ||
| BURL1_TS_DEWT_011987.nc | 30-Oct-2024 12:01 | 594620 | ||
| BURL1_TS_DEWT_011988.nc | 30-Oct-2024 13:08 | 1153701 | ||
| BURL1_TS_DEWT_011989.nc | 30-Oct-2024 14:07 | 1464711 | ||
| BURL1_TS_DEWT_011990.nc | 30-Oct-2024 15:08 | 1467271 | ||
| BURL1_TS_DEWT_011991.nc | 30-Oct-2024 16:09 | 1473258 | ||
| BURL1_TS_DEWT_011992.nc | 30-Oct-2024 17:13 | 1469964 | ||
| BURL1_TS_DEWT_011993.nc | 30-Oct-2024 18:22 | 1464618 | ||
| BURL1_TS_DEWT_011994.nc | 30-Oct-2024 19:27 | 1469405 | ||
| BURL1_TS_DEWT_011995.nc | 30-Oct-2024 20:32 | 1473261 | ||
| BURL1_TS_DEWT_011996.nc | 30-Oct-2024 21:38 | 1469311 | ||
| BURL1_TS_DEWT_011997.nc | 30-Oct-2024 22:43 | 1466452 | ||
| BURL1_TS_DEWT_011998.nc | 30-Oct-2024 23:50 | 1469243 | ||
| BURL1_TS_DEWT_011999.nc | 31-Oct-2024 00:56 | 1473331 | ||
| BURL1_TS_DEWT_012000.nc | 31-Oct-2024 02:00 | 1148201 | ||
| BURL1_TS_DEWT_012001.nc | 31-Oct-2024 03:05 | 1469853 | ||
| BURL1_TS_DEWT_012002.nc | 31-Oct-2024 04:22 | 1469407 | ||
| BURL1_TS_DEWT_012003.nc | 31-Oct-2024 05:40 | 429081 | ||
| BURL1_TS_DEWT_012004.nc | 31-Oct-2024 06:59 | 429861 | ||
| BURL1_TS_DEWT_012005.nc | 31-Oct-2024 08:14 | 428661 | ||
| BURL1_TS_DEWT_012006.nc | 31-Oct-2024 09:17 | 994211 | ||
| BURL1_TS_DEWT_012007.nc | 31-Oct-2024 10:22 | 1626549 | ||
| BURL1_TS_DEWT_012010.nc | 31-Oct-2024 11:31 | 1459846 | ||
| BURL1_TS_DEWT_012011.nc | 31-Oct-2024 12:36 | 1624230 | ||
| BURL1_TS_DEWT_012012.nc | 31-Oct-2024 13:49 | 1625968 | ||
| BURL1_TS_DEWT_012013.nc | 31-Oct-2024 14:58 | 1625617 | ||
| BURL1_TS_DEWT_012014.nc | 31-Oct-2024 15:54 | 1475432 | ||
| BURL1_TS_DEWT_012015.nc | 31-Oct-2024 17:02 | 1476063 | ||
| BURL1_TS_DEWT_012016.nc | 31-Oct-2024 18:08 | 1625463 | ||
| BURL1_TS_DEWT_012017.nc | 31-Oct-2024 19:08 | 1626165 | ||
| BURL1_TS_DEWT_012018.nc | 31-Oct-2024 20:06 | 1161255 | ||
| BURL1_TS_DEWT_012019.nc | 31-Oct-2024 21:09 | 1626600 | ||
| BURL1_TS_DEWT_012020.nc | 31-Oct-2024 22:06 | 1626920 | ||
| BURL1_TS_DEWT_012021.nc | 31-Oct-2024 23:07 | 1159222 | ||
| BURL1_TS_DEWT_012022.nc | 01-Nov-2024 00:10 | 1626644 | ||
| BURL1_TS_DEWT_012023.nc | 01-Nov-2024 01:14 | 418875 | ||
| BURL1_TS_DEWT_012025.nc | 07-Feb-2025 12:02 | 429422 | ||
| BURL1_TS_DEWT_012026.nc | 02-Feb-2026 17:39 | 429506 | ||
| BURL1_TS_DEWT_021984.nc | 30-Oct-2024 09:09 | 428561 | ||
| BURL1_TS_DEWT_021985.nc | 30-Oct-2024 10:07 | 1476075 | ||
| BURL1_TS_DEWT_021986.nc | 30-Oct-2024 11:06 | 1457113 | ||
| BURL1_TS_DEWT_021987.nc | 30-Oct-2024 12:05 | 1476790 | ||
| BURL1_TS_DEWT_021988.nc | 30-Oct-2024 13:14 | 1477013 | ||
| BURL1_TS_DEWT_021989.nc | 30-Oct-2024 14:11 | 1474167 | ||
| BURL1_TS_DEWT_021990.nc | 30-Oct-2024 15:14 | 1476896 | ||
| BURL1_TS_DEWT_021991.nc | 30-Oct-2024 16:14 | 1473600 | ||
| BURL1_TS_DEWT_021992.nc | 30-Oct-2024 17:19 | 1476163 | ||
| BURL1_TS_DEWT_021993.nc | 30-Oct-2024 18:28 | 1475963 | ||
| BURL1_TS_DEWT_021994.nc | 30-Oct-2024 19:32 | 1476829 | ||
| BURL1_TS_DEWT_021995.nc | 30-Oct-2024 20:39 | 1476964 | ||
| BURL1_TS_DEWT_021996.nc | 30-Oct-2024 21:44 | 1477095 | ||
| BURL1_TS_DEWT_021997.nc | 30-Oct-2024 22:50 | 1476948 | ||
| BURL1_TS_DEWT_021998.nc | 30-Oct-2024 23:55 | 1477097 | ||
| BURL1_TS_DEWT_021999.nc | 31-Oct-2024 01:01 | 1476316 | ||
| BURL1_TS_DEWT_022000.nc | 31-Oct-2024 02:05 | 429662 | ||
| BURL1_TS_DEWT_022001.nc | 31-Oct-2024 03:12 | 429910 | ||
| BURL1_TS_DEWT_022002.nc | 31-Oct-2024 04:28 | 429483 | ||
| BURL1_TS_DEWT_022003.nc | 31-Oct-2024 05:47 | 1473181 | ||
| BURL1_TS_DEWT_022004.nc | 31-Oct-2024 07:05 | 1467121 | ||
| BURL1_TS_DEWT_022005.nc | 31-Oct-2024 08:22 | 1625937 | ||
| BURL1_TS_DEWT_022006.nc | 31-Oct-2024 09:22 | 1626898 | ||
| BURL1_TS_DEWT_022007.nc | 31-Oct-2024 10:27 | 1626918 | ||
| BURL1_TS_DEWT_022010.nc | 31-Oct-2024 11:36 | 1624745 | ||
| BURL1_TS_DEWT_022011.nc | 31-Oct-2024 12:43 | 1626855 | ||
| BURL1_TS_DEWT_022012.nc | 31-Oct-2024 13:55 | 1625484 | ||
| BURL1_TS_DEWT_022013.nc | 31-Oct-2024 15:04 | 1626728 | ||
| BURL1_TS_DEWT_022014.nc | 31-Oct-2024 15:59 | 1626473 | ||
| BURL1_TS_DEWT_022015.nc | 31-Oct-2024 17:08 | 1626432 | ||
| BURL1_TS_DEWT_022016.nc | 31-Oct-2024 18:12 | 1626916 | ||
| BURL1_TS_DEWT_022017.nc | 31-Oct-2024 19:12 | 1626914 | ||
| BURL1_TS_DEWT_022018.nc | 31-Oct-2024 20:13 | 1624462 | ||
| BURL1_TS_DEWT_022019.nc | 31-Oct-2024 21:14 | 1626873 | ||
| BURL1_TS_DEWT_022020.nc | 31-Oct-2024 22:10 | 1626976 | ||
| BURL1_TS_DEWT_022021.nc | 31-Oct-2024 23:12 | 427217 | ||
| BURL1_TS_DEWT_022022.nc | 01-Nov-2024 00:16 | 429547 | ||
| BURL1_TS_DEWT_022023.nc | 01-Nov-2024 01:20 | 428890 | ||
| BURL1_TS_DEWT_022025.nc | 01-Mar-2025 11:36 | 1159062 | ||
| BURL1_TS_DEWT_022026.nc | 01-Mar-2026 07:14 | 1472029 | ||
| BURL1_TS_DEWT_031984.nc | 30-Oct-2024 09:14 | 1475802 | ||
| BURL1_TS_DEWT_031985.nc | 30-Oct-2024 10:12 | 1475851 | ||
| BURL1_TS_DEWT_031986.nc | 30-Oct-2024 11:11 | 1474482 | ||
| BURL1_TS_DEWT_031987.nc | 30-Oct-2024 12:10 | 1476463 | ||
| BURL1_TS_DEWT_031988.nc | 30-Oct-2024 13:19 | 1476921 | ||
| BURL1_TS_DEWT_031989.nc | 30-Oct-2024 14:17 | 1471098 | ||
| BURL1_TS_DEWT_031990.nc | 30-Oct-2024 15:19 | 1476685 | ||
| BURL1_TS_DEWT_031991.nc | 30-Oct-2024 16:18 | 1477019 | ||
| BURL1_TS_DEWT_031992.nc | 30-Oct-2024 17:23 | 1477100 | ||
| BURL1_TS_DEWT_031993.nc | 30-Oct-2024 18:33 | 1476662 | ||
| BURL1_TS_DEWT_031994.nc | 30-Oct-2024 19:37 | 1477040 | ||
| BURL1_TS_DEWT_031995.nc | 30-Oct-2024 20:43 | 1476736 | ||
| BURL1_TS_DEWT_031996.nc | 30-Oct-2024 21:49 | 1477086 | ||
| BURL1_TS_DEWT_031997.nc | 30-Oct-2024 22:56 | 1476073 | ||
| BURL1_TS_DEWT_031998.nc | 31-Oct-2024 00:00 | 429851 | ||
| BURL1_TS_DEWT_031999.nc | 31-Oct-2024 01:07 | 429887 | ||
| BURL1_TS_DEWT_032000.nc | 31-Oct-2024 02:10 | 429164 | ||
| BURL1_TS_DEWT_032001.nc | 31-Oct-2024 03:19 | 1626786 | ||
| BURL1_TS_DEWT_032002.nc | 31-Oct-2024 04:35 | 1625746 | ||
| BURL1_TS_DEWT_032003.nc | 31-Oct-2024 05:54 | 1625542 | ||
| BURL1_TS_DEWT_032004.nc | 31-Oct-2024 07:11 | 1626561 | ||
| BURL1_TS_DEWT_032005.nc | 31-Oct-2024 08:29 | 1626496 | ||
| BURL1_TS_DEWT_032006.nc | 31-Oct-2024 09:29 | 1626069 | ||
| BURL1_TS_DEWT_032007.nc | 31-Oct-2024 10:33 | 1626805 | ||
| BURL1_TS_DEWT_032010.nc | 31-Oct-2024 11:41 | 1155964 | ||
| BURL1_TS_DEWT_032011.nc | 31-Oct-2024 12:50 | 1626442 | ||
| BURL1_TS_DEWT_032012.nc | 31-Oct-2024 14:00 | 1625609 | ||
| BURL1_TS_DEWT_032013.nc | 31-Oct-2024 15:09 | 1625810 | ||
| BURL1_TS_DEWT_032014.nc | 31-Oct-2024 16:04 | 1625510 | ||
| BURL1_TS_DEWT_032015.nc | 31-Oct-2024 17:14 | 1625227 | ||
| BURL1_TS_DEWT_032016.nc | 31-Oct-2024 18:16 | 1626922 | ||
| BURL1_TS_DEWT_032017.nc | 31-Oct-2024 19:18 | 1626918 | ||
| BURL1_TS_DEWT_032018.nc | 31-Oct-2024 20:18 | 1626936 | ||
| BURL1_TS_DEWT_032019.nc | 31-Oct-2024 21:19 | 428760 | ||
| BURL1_TS_DEWT_032020.nc | 31-Oct-2024 22:14 | 424717 | ||
| BURL1_TS_DEWT_032021.nc | 31-Oct-2024 23:17 | 429368 | ||
| BURL1_TS_DEWT_032022.nc | 01-Nov-2024 00:22 | 1626476 | ||
| BURL1_TS_DEWT_032023.nc | 01-Nov-2024 01:26 | 1625780 | ||
| BURL1_TS_DEWT_032025.nc | 02-Apr-2025 05:14 | 1626386 | ||
| BURL1_TS_DEWT_032026.nc | 23-Mar-2026 09:04 | 1626871 | ||
| BURL1_TS_DEWT_041984.nc | 30-Oct-2024 09:19 | 1626318 | ||
| BURL1_TS_DEWT_041985.nc | 30-Oct-2024 10:15 | 1626382 | ||
| BURL1_TS_DEWT_041986.nc | 30-Oct-2024 11:16 | 1626870 | ||
| BURL1_TS_DEWT_041987.nc | 30-Oct-2024 12:16 | 1626093 | ||
| BURL1_TS_DEWT_041988.nc | 30-Oct-2024 13:24 | 1626896 | ||
| BURL1_TS_DEWT_041989.nc | 30-Oct-2024 14:21 | 1626815 | ||
| BURL1_TS_DEWT_041990.nc | 30-Oct-2024 15:24 | 1624962 | ||
| BURL1_TS_DEWT_041991.nc | 30-Oct-2024 16:23 | 1626240 | ||
| BURL1_TS_DEWT_041992.nc | 30-Oct-2024 17:29 | 1625198 | ||
| BURL1_TS_DEWT_041993.nc | 30-Oct-2024 18:38 | 1626394 | ||
| BURL1_TS_DEWT_041994.nc | 30-Oct-2024 19:42 | 1626974 | ||
| BURL1_TS_DEWT_041995.nc | 30-Oct-2024 20:49 | 1626597 | ||
| BURL1_TS_DEWT_041996.nc | 30-Oct-2024 21:55 | 424222 | ||
| BURL1_TS_DEWT_041997.nc | 30-Oct-2024 23:00 | 425618 | ||
| BURL1_TS_DEWT_041998.nc | 31-Oct-2024 00:06 | 1163110 | ||
| BURL1_TS_DEWT_041999.nc | 31-Oct-2024 01:12 | 1155264 | ||
| BURL1_TS_DEWT_042000.nc | 31-Oct-2024 02:15 | 1474156 | ||
| BURL1_TS_DEWT_042001.nc | 31-Oct-2024 03:24 | 1468752 | ||
| BURL1_TS_DEWT_042002.nc | 31-Oct-2024 04:42 | 1473100 | ||
| BURL1_TS_DEWT_042003.nc | 31-Oct-2024 06:00 | 1472774 | ||
| BURL1_TS_DEWT_042004.nc | 31-Oct-2024 07:17 | 1475847 | ||
| BURL1_TS_DEWT_042005.nc | 31-Oct-2024 08:36 | 1476102 | ||
| BURL1_TS_DEWT_042006.nc | 31-Oct-2024 09:37 | 1477075 | ||
| BURL1_TS_DEWT_042007.nc | 31-Oct-2024 10:37 | 1475386 | ||
| BURL1_TS_DEWT_042010.nc | 31-Oct-2024 11:46 | 1476945 | ||
| BURL1_TS_DEWT_042011.nc | 31-Oct-2024 12:56 | 1476851 | ||
| BURL1_TS_DEWT_042012.nc | 31-Oct-2024 14:05 | 1475831 | ||
| BURL1_TS_DEWT_042013.nc | 31-Oct-2024 15:15 | 1476710 | ||
| BURL1_TS_DEWT_042014.nc | 31-Oct-2024 16:10 | 1476812 | ||
| BURL1_TS_DEWT_042015.nc | 31-Oct-2024 17:21 | 1475953 | ||
| BURL1_TS_DEWT_042016.nc | 31-Oct-2024 18:21 | 1475136 | ||
| BURL1_TS_DEWT_042018.nc | 31-Oct-2024 20:23 | 429428 | ||
| BURL1_TS_DEWT_042019.nc | 31-Oct-2024 21:22 | 429476 | ||
| BURL1_TS_DEWT_042020.nc | 31-Oct-2024 22:19 | 1626443 | ||
| BURL1_TS_DEWT_042021.nc | 31-Oct-2024 23:21 | 1462644 | ||
| BURL1_TS_DEWT_042022.nc | 01-Nov-2024 00:27 | 1475252 | ||
| BURL1_TS_DEWT_042023.nc | 01-Nov-2024 01:32 | 1626352 | ||
| BURL1_TS_DEWT_042025.nc | 01-May-2025 05:22 | 1475384 | ||
| BURL1_TS_DEWT_051984.nc | 30-Oct-2024 09:23 | 1625344 | ||
| BURL1_TS_DEWT_051985.nc | 30-Oct-2024 10:21 | 1626942 | ||
| BURL1_TS_DEWT_051986.nc | 30-Oct-2024 11:21 | 1625949 | ||
| BURL1_TS_DEWT_051987.nc | 30-Oct-2024 12:21 | 1626897 | ||
| BURL1_TS_DEWT_051989.nc | 30-Oct-2024 14:26 | 1626853 | ||
| BURL1_TS_DEWT_051990.nc | 30-Oct-2024 15:28 | 1626851 | ||
| BURL1_TS_DEWT_051991.nc | 30-Oct-2024 16:28 | 1625470 | ||
| BURL1_TS_DEWT_051992.nc | 30-Oct-2024 17:35 | 1625457 | ||
| BURL1_TS_DEWT_051993.nc | 30-Oct-2024 18:43 | 1626397 | ||
| BURL1_TS_DEWT_051994.nc | 30-Oct-2024 19:48 | 1626577 | ||
| BURL1_TS_DEWT_051995.nc | 30-Oct-2024 20:55 | 1626956 | ||
| BURL1_TS_DEWT_051996.nc | 30-Oct-2024 22:00 | 423827 | ||
| BURL1_TS_DEWT_051997.nc | 30-Oct-2024 23:06 | 429453 | ||
| BURL1_TS_DEWT_051998.nc | 31-Oct-2024 00:11 | 429544 | ||
| BURL1_TS_DEWT_051999.nc | 31-Oct-2024 01:18 | 1466693 | ||
| BURL1_TS_DEWT_052000.nc | 31-Oct-2024 02:21 | 1476422 | ||
| BURL1_TS_DEWT_052001.nc | 31-Oct-2024 03:30 | 1472139 | ||
| BURL1_TS_DEWT_052002.nc | 31-Oct-2024 04:48 | 1475423 | ||
| BURL1_TS_DEWT_052003.nc | 31-Oct-2024 06:07 | 1476936 | ||
| BURL1_TS_DEWT_052004.nc | 31-Oct-2024 07:23 | 1475668 | ||
| BURL1_TS_DEWT_052005.nc | 31-Oct-2024 08:44 | 1476409 | ||
| BURL1_TS_DEWT_052006.nc | 31-Oct-2024 09:43 | 1476225 | ||
| BURL1_TS_DEWT_052007.nc | 31-Oct-2024 10:42 | 1476880 | ||
| BURL1_TS_DEWT_052010.nc | 31-Oct-2024 11:51 | 1476365 | ||
| BURL1_TS_DEWT_052011.nc | 31-Oct-2024 13:03 | 1476962 | ||
| BURL1_TS_DEWT_052012.nc | 31-Oct-2024 14:10 | 1476869 | ||
| BURL1_TS_DEWT_052013.nc | 31-Oct-2024 15:19 | 1474173 | ||
| BURL1_TS_DEWT_052014.nc | 31-Oct-2024 16:16 | 1461635 | ||
| BURL1_TS_DEWT_052015.nc | 31-Oct-2024 17:27 | 1477057 | ||
| BURL1_TS_DEWT_052016.nc | 31-Oct-2024 18:28 | 1477094 | ||
| BURL1_TS_DEWT_052017.nc | 31-Oct-2024 19:24 | 1477066 | ||
| BURL1_TS_DEWT_052018.nc | 31-Oct-2024 20:28 | 429424 | ||
| BURL1_TS_DEWT_052019.nc | 31-Oct-2024 21:26 | 429991 | ||
| BURL1_TS_DEWT_052020.nc | 31-Oct-2024 22:24 | 429891 | ||
| BURL1_TS_DEWT_052021.nc | 31-Oct-2024 23:26 | 592131 | ||
| BURL1_TS_DEWT_052022.nc | 01-Nov-2024 00:31 | 995346 | ||
| BURL1_TS_DEWT_052023.nc | 01-Nov-2024 01:38 | 1473000 | ||
| BURL1_TS_DEWT_052025.nc | 01-Jun-2025 05:21 | 1625491 | ||
| BURL1_TS_DEWT_061984.nc | 30-Oct-2024 09:28 | 1626906 | ||
| BURL1_TS_DEWT_061985.nc | 30-Oct-2024 10:26 | 1626419 | ||
| BURL1_TS_DEWT_061986.nc | 30-Oct-2024 11:26 | 1626676 | ||
| BURL1_TS_DEWT_061987.nc | 30-Oct-2024 12:27 | 1625218 | ||
| BURL1_TS_DEWT_061988.nc | 30-Oct-2024 13:34 | 1626146 | ||
| BURL1_TS_DEWT_061989.nc | 30-Oct-2024 14:32 | 1626761 | ||
| BURL1_TS_DEWT_061990.nc | 30-Oct-2024 15:33 | 1626781 | ||
| BURL1_TS_DEWT_061991.nc | 30-Oct-2024 16:33 | 1624225 | ||
| BURL1_TS_DEWT_061992.nc | 30-Oct-2024 17:41 | 1624733 | ||
| BURL1_TS_DEWT_061993.nc | 30-Oct-2024 18:49 | 1626577 | ||
| BURL1_TS_DEWT_061994.nc | 30-Oct-2024 19:53 | 1626199 | ||
| BURL1_TS_DEWT_061995.nc | 30-Oct-2024 21:00 | 1474854 | ||
| BURL1_TS_DEWT_061996.nc | 30-Oct-2024 22:06 | 1626915 | ||
| BURL1_TS_DEWT_061997.nc | 30-Oct-2024 23:12 | 1627284 | ||
| BURL1_TS_DEWT_061998.nc | 31-Oct-2024 00:17 | 1626105 | ||
| BURL1_TS_DEWT_061999.nc | 31-Oct-2024 01:24 | 1627478 | ||
| BURL1_TS_DEWT_062000.nc | 31-Oct-2024 02:26 | 1626849 | ||
| BURL1_TS_DEWT_062001.nc | 31-Oct-2024 03:36 | 1627737 | ||
| BURL1_TS_DEWT_062002.nc | 31-Oct-2024 04:55 | 1627697 | ||
| BURL1_TS_DEWT_062003.nc | 31-Oct-2024 06:13 | 1153651 | ||
| BURL1_TS_DEWT_062004.nc | 31-Oct-2024 07:29 | 1470692 | ||
| BURL1_TS_DEWT_062005.nc | 31-Oct-2024 08:51 | 1470515 | ||
| BURL1_TS_DEWT_062006.nc | 31-Oct-2024 09:48 | 1473933 | ||
| BURL1_TS_DEWT_062007.nc | 31-Oct-2024 10:48 | 1469302 | ||
| BURL1_TS_DEWT_062010.nc | 31-Oct-2024 11:57 | 1470307 | ||
| BURL1_TS_DEWT_062011.nc | 31-Oct-2024 13:09 | 1470168 | ||
| BURL1_TS_DEWT_062012.nc | 31-Oct-2024 14:17 | 420854 | ||
| BURL1_TS_DEWT_062014.nc | 31-Oct-2024 16:22 | 1627645 | ||
| BURL1_TS_DEWT_062015.nc | 31-Oct-2024 17:33 | 1627455 | ||
| BURL1_TS_DEWT_062016.nc | 31-Oct-2024 18:34 | 1627684 | ||
| BURL1_TS_DEWT_062017.nc | 31-Oct-2024 19:29 | 1160060 | ||
| BURL1_TS_DEWT_062018.nc | 31-Oct-2024 20:33 | 1627425 | ||
| BURL1_TS_DEWT_062019.nc | 31-Oct-2024 21:30 | 1627738 | ||
| BURL1_TS_DEWT_062020.nc | 31-Oct-2024 22:28 | 1459821 | ||
| BURL1_TS_DEWT_062021.nc | 31-Oct-2024 23:31 | 1477585 | ||
| BURL1_TS_DEWT_062022.nc | 01-Nov-2024 00:35 | 1477839 | ||
| BURL1_TS_DEWT_062023.nc | 01-Nov-2024 01:44 | 1477715 | ||
| BURL1_TS_DEWT_062025.nc | 01-Jul-2025 06:30 | 1477736 | ||
| BURL1_TS_DEWT_071984.nc | 30-Oct-2024 09:33 | 1477857 | ||
| BURL1_TS_DEWT_071985.nc | 30-Oct-2024 10:31 | 1476509 | ||
| BURL1_TS_DEWT_071986.nc | 30-Oct-2024 11:31 | 1627446 | ||
| BURL1_TS_DEWT_071987.nc | 30-Oct-2024 12:32 | 1627250 | ||
| BURL1_TS_DEWT_071988.nc | 30-Oct-2024 13:39 | 1627588 | ||
| BURL1_TS_DEWT_071989.nc | 30-Oct-2024 14:37 | 1477780 | ||
| BURL1_TS_DEWT_071990.nc | 30-Oct-2024 15:38 | 1625257 | ||
| BURL1_TS_DEWT_071991.nc | 30-Oct-2024 16:38 | 1627635 | ||
| BURL1_TS_DEWT_071992.nc | 30-Oct-2024 17:47 | 1627881 | ||
| BURL1_TS_DEWT_071993.nc | 30-Oct-2024 18:53 | 1477739 | ||
| BURL1_TS_DEWT_071994.nc | 30-Oct-2024 19:59 | 1477769 | ||
| BURL1_TS_DEWT_071995.nc | 30-Oct-2024 21:06 | 1477120 | ||
| BURL1_TS_DEWT_071996.nc | 30-Oct-2024 22:11 | 1477735 | ||
| BURL1_TS_DEWT_071997.nc | 30-Oct-2024 23:18 | 1477337 | ||
| BURL1_TS_DEWT_071998.nc | 31-Oct-2024 00:22 | 1477799 | ||
| BURL1_TS_DEWT_071999.nc | 31-Oct-2024 01:30 | 1477022 | ||
| BURL1_TS_DEWT_072000.nc | 31-Oct-2024 02:31 | 1626707 | ||
| BURL1_TS_DEWT_072001.nc | 31-Oct-2024 03:43 | 1626498 | ||
| BURL1_TS_DEWT_072002.nc | 31-Oct-2024 05:00 | 1627013 | ||
| BURL1_TS_DEWT_072003.nc | 31-Oct-2024 06:18 | 1625734 | ||
| BURL1_TS_DEWT_072004.nc | 31-Oct-2024 07:35 | 1627667 | ||
| BURL1_TS_DEWT_072005.nc | 31-Oct-2024 08:58 | 1627732 | ||
| BURL1_TS_DEWT_072006.nc | 31-Oct-2024 09:53 | 1627872 | ||
| BURL1_TS_DEWT_072007.nc | 31-Oct-2024 10:53 | 1627602 | ||
| BURL1_TS_DEWT_072010.nc | 31-Oct-2024 12:03 | 1477947 | ||
| BURL1_TS_DEWT_072011.nc | 31-Oct-2024 13:14 | 1627443 | ||
| BURL1_TS_DEWT_072012.nc | 31-Oct-2024 14:24 | 1626002 | ||
| BURL1_TS_DEWT_072014.nc | 31-Oct-2024 16:28 | 1627736 | ||
| BURL1_TS_DEWT_072015.nc | 31-Oct-2024 17:38 | 1627736 | ||
| BURL1_TS_DEWT_072016.nc | 31-Oct-2024 18:38 | 1627541 | ||
| BURL1_TS_DEWT_072017.nc | 31-Oct-2024 19:34 | 1477816 | ||
| BURL1_TS_DEWT_072018.nc | 31-Oct-2024 20:38 | 1477727 | ||
| BURL1_TS_DEWT_072019.nc | 31-Oct-2024 21:35 | 1477823 | ||
| BURL1_TS_DEWT_072020.nc | 31-Oct-2024 22:33 | 1477188 | ||
| BURL1_TS_DEWT_072021.nc | 31-Oct-2024 23:37 | 1477815 | ||
| BURL1_TS_DEWT_072022.nc | 01-Nov-2024 00:40 | 1477746 | ||
| BURL1_TS_DEWT_072023.nc | 01-Nov-2024 01:50 | 1477689 | ||
| BURL1_TS_DEWT_072025.nc | 24-Jul-2025 05:42 | 1627620 | ||
| BURL1_TS_DEWT_081984.nc | 30-Oct-2024 09:40 | 1627475 | ||
| BURL1_TS_DEWT_081985.nc | 30-Oct-2024 10:36 | 1627517 | ||
| BURL1_TS_DEWT_081986.nc | 30-Oct-2024 11:35 | 1626278 | ||
| BURL1_TS_DEWT_081987.nc | 30-Oct-2024 12:38 | 1627492 | ||
| BURL1_TS_DEWT_081988.nc | 30-Oct-2024 13:44 | 1627364 | ||
| BURL1_TS_DEWT_081989.nc | 30-Oct-2024 14:42 | 1627865 | ||
| BURL1_TS_DEWT_081990.nc | 30-Oct-2024 15:43 | 1477784 | ||
| BURL1_TS_DEWT_081991.nc | 30-Oct-2024 16:43 | 1477346 | ||
| BURL1_TS_DEWT_081992.nc | 30-Oct-2024 17:52 | 1474665 | ||
| BURL1_TS_DEWT_081993.nc | 30-Oct-2024 18:59 | 1472781 | ||
| BURL1_TS_DEWT_081994.nc | 30-Oct-2024 20:05 | 1477831 | ||
| BURL1_TS_DEWT_081995.nc | 30-Oct-2024 21:10 | 1477830 | ||
| BURL1_TS_DEWT_081996.nc | 30-Oct-2024 22:16 | 1477596 | ||
| BURL1_TS_DEWT_081997.nc | 30-Oct-2024 23:23 | 1627110 | ||
| BURL1_TS_DEWT_081998.nc | 31-Oct-2024 00:27 | 1478366 | ||
| BURL1_TS_DEWT_081999.nc | 31-Oct-2024 01:35 | 1627436 | ||
| BURL1_TS_DEWT_082000.nc | 31-Oct-2024 02:36 | 1627567 | ||
| BURL1_TS_DEWT_082001.nc | 31-Oct-2024 03:48 | 1627001 | ||
| BURL1_TS_DEWT_082002.nc | 31-Oct-2024 05:08 | 1475618 | ||
| BURL1_TS_DEWT_082003.nc | 31-Oct-2024 06:25 | 1153143 | ||
| BURL1_TS_DEWT_082004.nc | 31-Oct-2024 07:41 | 1625684 | ||
| BURL1_TS_DEWT_082005.nc | 31-Oct-2024 09:05 | 1475645 | ||
| BURL1_TS_DEWT_082006.nc | 31-Oct-2024 09:59 | 1460731 | ||
| BURL1_TS_DEWT_082007.nc | 31-Oct-2024 10:59 | 1626628 | ||
| BURL1_TS_DEWT_082009.nc | 31-Oct-2024 11:05 | 1473073 | ||
| BURL1_TS_DEWT_082010.nc | 31-Oct-2024 12:09 | 1469304 | ||
| BURL1_TS_DEWT_082011.nc | 31-Oct-2024 13:20 | 1469886 | ||
| BURL1_TS_DEWT_082012.nc | 31-Oct-2024 14:29 | 1464415 | ||
| BURL1_TS_DEWT_082013.nc | 31-Oct-2024 15:25 | 1469854 | ||
| BURL1_TS_DEWT_082014.nc | 31-Oct-2024 16:33 | 1150454 | ||
| BURL1_TS_DEWT_082015.nc | 31-Oct-2024 17:43 | 1457922 | ||
| BURL1_TS_DEWT_082016.nc | 31-Oct-2024 18:44 | 1477434 | ||
| BURL1_TS_DEWT_082017.nc | 31-Oct-2024 19:39 | 1468090 | ||
| BURL1_TS_DEWT_082018.nc | 31-Oct-2024 20:43 | 1461822 | ||
| BURL1_TS_DEWT_082019.nc | 31-Oct-2024 21:40 | 1161453 | ||
| BURL1_TS_DEWT_082020.nc | 31-Oct-2024 22:38 | 1471839 | ||
| BURL1_TS_DEWT_082021.nc | 31-Oct-2024 23:43 | 1474491 | ||
| BURL1_TS_DEWT_082022.nc | 01-Nov-2024 00:45 | 1465664 | ||
| BURL1_TS_DEWT_082023.nc | 01-Nov-2024 01:56 | 1469877 | ||
| BURL1_TS_DEWT_091984.nc | 30-Oct-2024 09:43 | 1475028 | ||
| BURL1_TS_DEWT_091985.nc | 30-Oct-2024 10:40 | 1459621 | ||
| BURL1_TS_DEWT_091986.nc | 30-Oct-2024 11:40 | 1464823 | ||
| BURL1_TS_DEWT_091987.nc | 30-Oct-2024 12:43 | 1471918 | ||
| BURL1_TS_DEWT_091988.nc | 30-Oct-2024 13:49 | 1471855 | ||
| BURL1_TS_DEWT_091989.nc | 30-Oct-2024 14:48 | 1472244 | ||
| BURL1_TS_DEWT_091990.nc | 30-Oct-2024 15:50 | 1466005 | ||
| BURL1_TS_DEWT_091991.nc | 30-Oct-2024 16:49 | 1475723 | ||
| BURL1_TS_DEWT_091992.nc | 30-Oct-2024 17:59 | 1472430 | ||
| BURL1_TS_DEWT_091993.nc | 30-Oct-2024 19:06 | 1476040 | ||
| BURL1_TS_DEWT_091994.nc | 30-Oct-2024 20:10 | 1468902 | ||
| BURL1_TS_DEWT_091995.nc | 30-Oct-2024 21:16 | 1476387 | ||
| BURL1_TS_DEWT_091996.nc | 30-Oct-2024 22:21 | 1471326 | ||
| BURL1_TS_DEWT_091997.nc | 30-Oct-2024 23:28 | 1470670 | ||
| BURL1_TS_DEWT_091998.nc | 31-Oct-2024 00:33 | 1461796 | ||
| BURL1_TS_DEWT_091999.nc | 31-Oct-2024 01:40 | 1472514 | ||
| BURL1_TS_DEWT_092000.nc | 31-Oct-2024 02:41 | 1156456 | ||
| BURL1_TS_DEWT_092001.nc | 31-Oct-2024 03:56 | 1472780 | ||
| BURL1_TS_DEWT_092002.nc | 31-Oct-2024 05:15 | 1154590 | ||
| BURL1_TS_DEWT_092003.nc | 31-Oct-2024 06:32 | 1475928 | ||
| BURL1_TS_DEWT_092004.nc | 31-Oct-2024 07:48 | 1143395 | ||
| BURL1_TS_DEWT_092006.nc | 31-Oct-2024 10:03 | 1474832 | ||
| BURL1_TS_DEWT_092009.nc | 31-Oct-2024 11:10 | 1472278 | ||
| BURL1_TS_DEWT_092010.nc | 31-Oct-2024 12:14 | 1458832 | ||
| BURL1_TS_DEWT_092011.nc | 31-Oct-2024 13:27 | 1476254 | ||
| BURL1_TS_DEWT_092012.nc | 31-Oct-2024 14:35 | 1466044 | ||
| BURL1_TS_DEWT_092013.nc | 31-Oct-2024 15:31 | 1626148 | ||
| BURL1_TS_DEWT_092014.nc | 31-Oct-2024 16:38 | 1626508 | ||
| BURL1_TS_DEWT_092015.nc | 31-Oct-2024 17:49 | 1156630 | ||
| BURL1_TS_DEWT_092016.nc | 31-Oct-2024 18:50 | 1624565 | ||
| BURL1_TS_DEWT_092017.nc | 31-Oct-2024 19:46 | 994334 | ||
| BURL1_TS_DEWT_092018.nc | 31-Oct-2024 20:50 | 441538 | ||
| BURL1_TS_DEWT_092019.nc | 31-Oct-2024 21:45 | 450548 | ||
| BURL1_TS_DEWT_092020.nc | 31-Oct-2024 22:43 | 450095 | ||
| BURL1_TS_DEWT_092021.nc | 31-Oct-2024 23:47 | 450291 | ||
| BURL1_TS_DEWT_092022.nc | 01-Nov-2024 00:50 | 450266 | ||
| BURL1_TS_DEWT_092023.nc | 01-Nov-2024 02:01 | 438279 | ||
| BURL1_TS_DEWT_101984.nc | 30-Oct-2024 09:48 | 451305 | ||
| BURL1_TS_DEWT_101985.nc | 30-Oct-2024 10:46 | 451464 | ||
| BURL1_TS_DEWT_101986.nc | 30-Oct-2024 11:46 | 450842 | ||
| BURL1_TS_DEWT_101987.nc | 30-Oct-2024 12:50 | 450406 | ||
| BURL1_TS_DEWT_101988.nc | 30-Oct-2024 13:54 | 450668 | ||
| BURL1_TS_DEWT_101989.nc | 30-Oct-2024 14:53 | 451398 | ||
| BURL1_TS_DEWT_101990.nc | 30-Oct-2024 15:55 | 450216 | ||
| BURL1_TS_DEWT_101991.nc | 30-Oct-2024 16:56 | 431594 | ||
| BURL1_TS_DEWT_101992.nc | 30-Oct-2024 18:06 | 447284 | ||
| BURL1_TS_DEWT_101993.nc | 30-Oct-2024 19:11 | 449038 | ||
| BURL1_TS_DEWT_101994.nc | 30-Oct-2024 20:16 | 446813 | ||
| BURL1_TS_DEWT_101995.nc | 30-Oct-2024 21:22 | 448499 | ||
| BURL1_TS_DEWT_101996.nc | 30-Oct-2024 22:27 | 446891 | ||
| BURL1_TS_DEWT_101997.nc | 30-Oct-2024 23:32 | 447707 | ||
| BURL1_TS_DEWT_101998.nc | 31-Oct-2024 00:37 | 447787 | ||
| BURL1_TS_DEWT_101999.nc | 31-Oct-2024 01:45 | 448225 | ||
| BURL1_TS_DEWT_102000.nc | 31-Oct-2024 02:46 | 447425 | ||
| BURL1_TS_DEWT_102001.nc | 31-Oct-2024 04:02 | 447253 | ||
| BURL1_TS_DEWT_102002.nc | 31-Oct-2024 05:22 | 447689 | ||
| BURL1_TS_DEWT_102003.nc | 31-Oct-2024 06:39 | 449740 | ||
| BURL1_TS_DEWT_102004.nc | 31-Oct-2024 07:54 | 450774 | ||
| BURL1_TS_DEWT_102006.nc | 31-Oct-2024 10:08 | 450260 | ||
| BURL1_TS_DEWT_102009.nc | 31-Oct-2024 11:15 | 451091 | ||
| BURL1_TS_DEWT_102010.nc | 31-Oct-2024 12:19 | 450648 | ||
| BURL1_TS_DEWT_102011.nc | 31-Oct-2024 13:33 | 451187 | ||
| BURL1_TS_DEWT_102012.nc | 31-Oct-2024 14:41 | 450538 | ||
| BURL1_TS_DEWT_102013.nc | 31-Oct-2024 15:37 | 450940 | ||
| BURL1_TS_DEWT_102014.nc | 31-Oct-2024 16:44 | 451068 | ||
| BURL1_TS_DEWT_102015.nc | 31-Oct-2024 17:54 | 450212 | ||
| BURL1_TS_DEWT_102016.nc | 31-Oct-2024 18:54 | 451317 | ||
| BURL1_TS_DEWT_102017.nc | 31-Oct-2024 19:51 | 450254 | ||
| BURL1_TS_DEWT_102018.nc | 31-Oct-2024 20:56 | 449327 | ||
| BURL1_TS_DEWT_102019.nc | 31-Oct-2024 21:50 | 449332 | ||
| BURL1_TS_DEWT_102020.nc | 31-Oct-2024 22:49 | 450020 | ||
| BURL1_TS_DEWT_102021.nc | 31-Oct-2024 23:54 | 449625 | ||
| BURL1_TS_DEWT_102022.nc | 01-Nov-2024 00:56 | 449726 | ||
| BURL1_TS_DEWT_102023.nc | 01-Nov-2024 02:06 | 451138 | ||
| BURL1_TS_DEWT_102024.nc | 12-Jan-2025 21:44 | 450717 | ||
| BURL1_TS_DEWT_111984.nc | 30-Oct-2024 09:53 | 449642 | ||
| BURL1_TS_DEWT_111985.nc | 30-Oct-2024 10:50 | 449769 | ||
| BURL1_TS_DEWT_111986.nc | 30-Oct-2024 11:51 | 448929 | ||
| BURL1_TS_DEWT_111987.nc | 30-Oct-2024 12:56 | 449725 | ||
| BURL1_TS_DEWT_111988.nc | 30-Oct-2024 13:58 | 450544 | ||
| BURL1_TS_DEWT_111989.nc | 30-Oct-2024 14:58 | 449380 | ||
| BURL1_TS_DEWT_111990.nc | 30-Oct-2024 16:00 | 449490 | ||
| BURL1_TS_DEWT_111991.nc | 30-Oct-2024 17:01 | 450020 | ||
| BURL1_TS_DEWT_111992.nc | 30-Oct-2024 18:11 | 450197 | ||
| BURL1_TS_DEWT_111993.nc | 30-Oct-2024 19:16 | 451059 | ||
| BURL1_TS_DEWT_111994.nc | 30-Oct-2024 20:22 | 451033 | ||
| BURL1_TS_DEWT_111995.nc | 30-Oct-2024 21:27 | 450743 | ||
| BURL1_TS_DEWT_111996.nc | 30-Oct-2024 22:32 | 448961 | ||
| BURL1_TS_DEWT_111997.nc | 30-Oct-2024 23:38 | 450103 | ||
| BURL1_TS_DEWT_111998.nc | 31-Oct-2024 00:44 | 449116 | ||
| BURL1_TS_DEWT_111999.nc | 31-Oct-2024 01:51 | 448901 | ||
| BURL1_TS_DEWT_112000.nc | 31-Oct-2024 02:52 | 449194 | ||
| BURL1_TS_DEWT_112001.nc | 31-Oct-2024 04:09 | 449672 | ||
| BURL1_TS_DEWT_112002.nc | 31-Oct-2024 05:28 | 449355 | ||
| BURL1_TS_DEWT_112003.nc | 31-Oct-2024 06:46 | 448932 | ||
| BURL1_TS_DEWT_112004.nc | 31-Oct-2024 08:01 | 449541 | ||
| BURL1_TS_DEWT_112006.nc | 31-Oct-2024 10:11 | 448619 | ||
| BURL1_TS_DEWT_112009.nc | 31-Oct-2024 11:20 | 449407 | ||
| BURL1_TS_DEWT_112010.nc | 31-Oct-2024 12:25 | 430797 | ||
| BURL1_TS_DEWT_112011.nc | 31-Oct-2024 13:39 | 448901 | ||
| BURL1_TS_DEWT_112012.nc | 31-Oct-2024 14:47 | 448904 | ||
| BURL1_TS_DEWT_112013.nc | 31-Oct-2024 15:43 | 450934 | ||
| BURL1_TS_DEWT_112014.nc | 31-Oct-2024 16:50 | 449113 | ||
| BURL1_TS_DEWT_112015.nc | 31-Oct-2024 17:58 | 449985 | ||
| BURL1_TS_DEWT_112016.nc | 31-Oct-2024 18:59 | 450127 | ||
| BURL1_TS_DEWT_112017.nc | 31-Oct-2024 19:56 | 449659 | ||
| BURL1_TS_DEWT_112018.nc | 31-Oct-2024 21:00 | 450211 | ||
| BURL1_TS_DEWT_112019.nc | 31-Oct-2024 21:55 | 450366 | ||
| BURL1_TS_DEWT_112020.nc | 31-Oct-2024 22:55 | 450068 | ||
| BURL1_TS_DEWT_112021.nc | 31-Oct-2024 23:58 | 439645 | ||
| BURL1_TS_DEWT_112022.nc | 01-Nov-2024 01:02 | 449207 | ||
| BURL1_TS_DEWT_112023.nc | 01-Nov-2024 02:12 | 450106 | ||
| BURL1_TS_DEWT_112024.nc | 17-Jan-2025 17:03 | 450123 | ||
| BURL1_TS_DEWT_112025.nc | 01-Dec-2025 05:00 | 450871 | ||
| BURL1_TS_DEWT_121984.nc | 30-Oct-2024 09:58 | 450353 | ||
| BURL1_TS_DEWT_121985.nc | 30-Oct-2024 10:56 | 450637 | ||
| BURL1_TS_DEWT_121986.nc | 30-Oct-2024 11:56 | 450869 | ||
| BURL1_TS_DEWT_121987.nc | 30-Oct-2024 13:01 | 449847 | ||
| BURL1_TS_DEWT_121988.nc | 30-Oct-2024 14:03 | 447882 | ||
| BURL1_TS_DEWT_121989.nc | 30-Oct-2024 15:03 | 451089 | ||
| BURL1_TS_DEWT_121990.nc | 30-Oct-2024 16:04 | 450240 | ||
| BURL1_TS_DEWT_121991.nc | 30-Oct-2024 17:06 | 450398 | ||
| BURL1_TS_DEWT_121992.nc | 30-Oct-2024 18:16 | 449239 | ||
| BURL1_TS_DEWT_121993.nc | 30-Oct-2024 19:22 | 449799 | ||
| BURL1_TS_DEWT_121994.nc | 30-Oct-2024 20:27 | 449691 | ||
| BURL1_TS_DEWT_121995.nc | 30-Oct-2024 21:32 | 449898 | ||
| BURL1_TS_DEWT_121996.nc | 30-Oct-2024 22:38 | 449427 | ||
| BURL1_TS_DEWT_121997.nc | 30-Oct-2024 23:44 | 434814 | ||
| BURL1_TS_DEWT_121998.nc | 31-Oct-2024 00:50 | 448925 | ||
| BURL1_TS_DEWT_121999.nc | 31-Oct-2024 01:55 | 448256 | ||
| BURL1_TS_DEWT_122000.nc | 31-Oct-2024 02:59 | 448680 | ||
| BURL1_TS_DEWT_122001.nc | 31-Oct-2024 04:16 | 448593 | ||
| BURL1_TS_DEWT_122002.nc | 31-Oct-2024 05:34 | 448655 | ||
| BURL1_TS_DEWT_122003.nc | 31-Oct-2024 06:53 | 439327 | ||
| BURL1_TS_DEWT_122004.nc | 31-Oct-2024 08:07 | 450028 | ||
| BURL1_TS_DEWT_122005.nc | 31-Oct-2024 09:10 | 450819 | ||
| BURL1_TS_DEWT_122006.nc | 31-Oct-2024 10:16 | 450489 | ||
| BURL1_TS_DEWT_122009.nc | 31-Oct-2024 11:26 | 448969 | ||
| BURL1_TS_DEWT_122010.nc | 31-Oct-2024 12:30 | 441924 | ||
| BURL1_TS_DEWT_122011.nc | 31-Oct-2024 13:44 | 450783 | ||
| BURL1_TS_DEWT_122012.nc | 31-Oct-2024 14:53 | 449200 | ||
| BURL1_TS_DEWT_122013.nc | 31-Oct-2024 15:49 | 450000 | ||
| BURL1_TS_DEWT_122014.nc | 31-Oct-2024 16:56 | 449300 | ||
| BURL1_TS_DEWT_122015.nc | 31-Oct-2024 18:02 | 429845 | ||
| BURL1_TS_DEWT_122016.nc | 31-Oct-2024 19:04 | 448806 | ||
| BURL1_TS_DEWT_122017.nc | 31-Oct-2024 20:00 | 449915 | ||
| BURL1_TS_DEWT_122018.nc | 31-Oct-2024 21:05 | 448683 | ||
| BURL1_TS_DEWT_122019.nc | 31-Oct-2024 22:01 | 449104 | ||
| BURL1_TS_DEWT_122020.nc | 31-Oct-2024 23:00 | 442289 | ||
| BURL1_TS_DEWT_122021.nc | 01-Nov-2024 00:04 | 450653 | ||
| BURL1_TS_DEWT_122022.nc | 01-Nov-2024 01:08 | 450390 | ||
| BURL1_TS_DEWT_122023.nc | 01-Nov-2024 02:17 | 450057 | ||
| BURL1_TS_DEWT_122024.nc | 22-Jan-2025 17:57 | 449280 | ||
| BURL1_TS_DEWT_122025.nc | 01-Jan-2026 05:57 | 449292 | ||